Glasgow, United Kingdom

10:40 PM BST on July 25, 2017 (GMT +0100)
Glasgow

Weather History for EGPF - November, 2013

Change the Weather History Date:

Monday, November 4, 2013

  Actual Average Record
Temperature  
Mean Temperature 37 °F -  
Max Temperature 48 °F 46 °F 59 °F (2003)
Min Temperature 26 °F 36 °F 26 °F (2008)
Degree Days  
Heating Degree Days 28    
Moisture  
Dew Point 33 °F    
Average Humidity 90    
Maximum Humidity 100    
Minimum Humidity 66    
Precipitation  
Precipitation 0.00 in - - ()
Sea Level Pressure  
Sea Level Pressure 29.31 in    
Wind  
Wind Speed 4 mph ()    
Max Wind Speed 9 mph    
Max Gust Speed -    
Visibility 5.8 miles    
Events Fog    
Averages and records for this station are not official NWS values.
T = Trace of Precipitation, MM = Missing Value Source: Averaged Metar Reports

Daily Weather History Graph

Daily Weather History Graph

Search for Another Location

Airport or City:

Trip Planner

Search our weather history database for the weather conditions in past years. The results will help you decide how hot, cold, wet, or windy it might be!

Date:

Astronomy

Nov. 04, 2013 Rise Set
Actual Time 7:30 AM GMT 4:30 PM GMT
Civil Twilight 6:50 AM GMT 5:10 PM GMT
Nautical Twilight 6:06 AM GMT 5:55 PM GMT
Astronomical Twilight 5:23 AM GMT 6:38 PM GMT
Moon 8:36 AM GMT (11/4) 5:10 PM GMT (11/4)
Length of Visible Light 10h 20m
Length of Day
9h 00m
New Moon, 1% of the Moon is Illuminated
Nov 4
New Moon
Nov 10
First Quarter
Nov 17
Full
Nov 25
Last Quarter
Dec 3
New

Hourly Weather History & Observations

Time (GMT) Temp. Windchill Dew Point Humidity Pressure Visibility Wind Dir Wind Speed Gust Speed Precip Events Conditions
12:20 AM 32.0 °F 26.4 °F 32.0 °F 100% 29.24 in - East 5.8 mph - N/A   Clear
12:50 AM 33.8 °F - 33.8 °F 100% 29.24 in - SSE 2.3 mph - N/A   Clear
1:20 AM 32.0 °F 25.6 °F 30.2 °F 93% 29.24 in 6.2 mi SW 6.9 mph - N/A   Partly Cloudy
1:50 AM 33.8 °F - 32.0 °F 93% 29.24 in - Calm Calm - N/A   Clear
2:20 AM 33.8 °F - 32.0 °F 93% 29.24 in - Variable 2.3 mph - N/A   Clear
2:50 AM 32.0 °F 28.7 °F 30.2 °F 93% 29.24 in - Variable 3.5 mph - N/A   Clear
3:20 AM 33.8 °F 28.6 °F 32.0 °F 93% 29.21 in - West 5.8 mph - N/A   Clear
3:50 AM 33.8 °F - 32.0 °F 93% 29.21 in - SSW 2.3 mph - N/A   Clear
4:20 AM 33.8 °F 29.6 °F 32.0 °F 93% 29.24 in - SW 4.6 mph - N/A   Clear
4:50 AM 30.2 °F 24.3 °F 28.4 °F 93% 29.24 in - SW 5.8 mph - N/A   Clear
5:20 AM 32.0 °F 27.5 °F 32.0 °F 100% 29.24 in - WSW 4.6 mph - N/A   Clear
5:50 AM 30.2 °F 26.7 °F 30.2 °F 100% 29.27 in - West 3.5 mph - N/A   Clear
6:20 AM 26.6 °F - 26.6 °F 100% 29.27 in - West 2.3 mph - N/A   Clear
6:50 AM 26.6 °F 22.6 °F 24.8 °F 93% 29.27 in - WSW 3.5 mph - N/A   Clear
7:20 AM 28.4 °F 21.2 °F 28.4 °F 100% 29.27 in 6.2 mi WSW 6.9 mph - N/A   Partly Cloudy
7:50 AM 28.4 °F - 28.4 °F 100% 29.27 in 6.2 mi West 2.3 mph - N/A   Partly Cloudy
8:20 AM 30.2 °F 25.4 °F 30.2 °F 100% 29.30 in 6.2 mi WSW 4.6 mph - N/A   Partly Cloudy
8:50 AM 33.8 °F 30.8 °F 33.8 °F 100% 29.30 in - West 3.5 mph - N/A   Clear
9:20 AM 35.6 °F 31.7 °F 33.8 °F 93% 29.30 in - WSW 4.6 mph - N/A   Clear
9:50 AM 39.2 °F 35.9 °F 39.2 °F 100% 29.33 in - West 4.6 mph - N/A   Clear
10:20 AM 42.8 °F 39.3 °F 39.2 °F 87% 29.33 in - West 5.8 mph - N/A   Clear
10:50 AM 44.6 °F 40.7 °F 39.2 °F 81% 29.33 in - WNW 6.9 mph - N/A   Clear
11:20 AM 44.6 °F 40.2 °F 39.2 °F 81% 29.33 in - WNW 8.1 mph - N/A   Clear
11:50 AM 46.4 °F 42.4 °F 39.2 °F 76% 29.33 in - WNW 8.1 mph - N/A   Clear
12:20 PM 46.4 °F 41.9 °F 39.2 °F 76% 29.33 in - WNW 9.2 mph - N/A   Clear
12:50 PM 48.2 °F - 37.4 °F 66% 29.33 in - WNW 8.1 mph - N/A   Clear
1:20 PM 48.2 °F - 37.4 °F 66% 29.33 in - NW 8.1 mph - N/A   Clear
1:50 PM 48.2 °F - 37.4 °F 66% 29.33 in 6.2 mi WNW 9.2 mph - N/A   Partly Cloudy
2:20 PM 48.2 °F - 37.4 °F 66% 29.36 in 6.2 mi WNW 9.2 mph - N/A   Partly Cloudy
2:50 PM 46.4 °F 42.9 °F 39.2 °F 76% 29.36 in 6.2 mi WNW 6.9 mph - N/A   Partly Cloudy
3:20 PM 46.4 °F 44.3 °F 39.2 °F 76% 29.36 in 6.2 mi WSW 4.6 mph - N/A   Partly Cloudy
3:50 PM 44.6 °F 42.2 °F 37.4 °F 76% 29.36 in 6.2 mi WSW 4.6 mph - N/A   Partly Cloudy
4:20 PM 41.0 °F 37.1 °F 35.6 °F 81% 29.36 in 6.2 mi West 5.8 mph - N/A   Partly Cloudy
4:50 PM 41.0 °F 39.0 °F 35.6 °F 81% 29.36 in - WSW 3.5 mph - N/A   Clear
5:20 PM 35.6 °F 30.7 °F 33.8 °F 93% 29.36 in - WSW 5.8 mph - N/A   Clear
5:50 PM 37.4 °F 34.9 °F 35.6 °F 93% 29.36 in - West 3.5 mph - N/A   Clear
6:20 PM 35.6 °F 30.7 °F 33.8 °F 93% 29.36 in - SW 5.8 mph - N/A   Clear
6:50 PM 32.0 °F 25.6 °F 30.2 °F 93% 29.36 in - WSW 6.9 mph - N/A   Clear
7:20 PM 33.8 °F 27.7 °F 33.8 °F 100% 29.36 in - WSW 6.9 mph - N/A   Clear
7:50 PM 32.0 °F - 30.2 °F 93% 29.36 in - Variable 2.3 mph - N/A   Clear
8:20 PM 32.0 °F - 32.0 °F 100% 29.36 in - Variable 2.3 mph - N/A   Clear
8:50 PM 32.0 °F - 32.0 °F 100% 29.36 in 6.2 mi West 2.3 mph - N/A Fog Shallow Fog
9:20 PM 30.2 °F 26.7 °F 28.4 °F 93% 29.36 in 6.2 mi West 3.5 mph - N/A Fog Shallow Fog
9:50 PM 32.0 °F - 32.0 °F 100% 29.36 in 5.6 mi Variable 2.3 mph - N/A Fog Fog
10:20 PM 30.2 °F 26.7 °F 30.2 °F 100% 29.33 in - SW 3.5 mph - N/A   Clear
10:50 PM 30.2 °F - 28.4 °F 93% 29.33 in - Calm Calm - N/A   Clear
11:20 PM 28.4 °F - 28.4 °F 100% 29.33 in 0.2 mi Calm Calm - N/A Fog Light Freezing Fog
11:50 PM 28.4 °F 24.6 °F 28.4 °F 100% 29.33 in 6.2 mi NE 3.5 mph - N/A Fog Patches of Fog